CAPE
724 500 553 565 668 515 385 594 379 454 411 505 290 118 31 200 1 9 39 0 0 0 0 0 0 0 0 0 0 0 0 0 0 0 0 0 0 0 0 0 0 0
638 698 413 466 576 522 498 782 503 501 466 602 498 312 110 152 12 72 97 22 0 0 0 0 0 0 0 0 0 0 0 0 0 0 0 0 0 0 0 0 0 0
677 828 516 558 444 730 493 575 867 595 415 581 774 506 270 189 52 202 136 28 0 1 0 0 0 0 0 0 0 0 0 0 0 0 0 0 0 0 0 0 0 0
1000 970 857 768 549 910 726 474 750 834 537 546 839 657 396 220 55 244 215 85 15 18 0 0 0 0 0 0 0 0 0 0 0 0 0 0 0 0 0 0 0 0
1232 1255 1352 1202 952 966 887 574 645 592 628 558 598 686 470 311 116 246 273 124 106 30 6 7 0 0 0 0 0 0 0 0 0 0 0 0 0 0 0 0 0 0
1260 1216 1185 1278 1358 854 608 1038 764 616 704 626 658 563 731 459 173 199 249 158 96 122 50 11 2 0 0 0 0 0 0 0 0 0 0 0 0 0 0 0 0 0
1562 1535 1464 1407 1085 1149 1005 1242 953 748 788 765 523 456 484 657 353 207 198 192 96 138 58 17 0 0 0 0 0 0 0 0 0 0 0 0 0 0 0 0 0 0
1388 984 903 905 1173 1091 727 1323 1078 986 927 1026 932 709 466 706 575 272 260 239 135 109 97 33 2 0 0 0 0 0 0 0 0 0 0 0 0 0 0 0 0 0
1153 835 732 1067 918 780 791 997 1180 1197 987 760 696 686 635 541 575 528 317 265 197 164 105 91 38 0 0 0 0 0 0 0 0 0 0 0 0 0 0 0 0 0
677 545 908 1306 1144 621 830 1049 999 1216 1222 1076 994 900 574 550 689 540 393 400 283 199 131 124 82 30 10 0 0 0 0 0 0 0 0 0 0 0 0 0 0 0
607 98 630 1115 1202 958 1058 1156 922 818 1029 952 1140 1154 780 648 480 462 438 356 427 330 206 158 117 61 21 4 0 0 0 0 0 0 0 0 0 0 0 0 0 0
1240 1181 1032 1140 1054 618 523 802 1113 1112 377 962 997 852 529 524 284 232 175 221 198 313 252 147 114 106 75 29 2 0 0 0 0 0 0 0 0 0 0 0 0 0
1610 1483 1222 1038 1050 831 811 959 1124 1200 946 786 665 606 634 103 143 111 76 142 239 151 66 41 27 67 128 126 116 4 0 0 0 0 0 0 0 0 0 0 0 0
401 410 389 286 493 957 1262 1224 1284 1076 673 639 667 904 690 583 540 522 60 64 75 36 95 48 176 197 92 101 99 97 43 0 0 0 0 0 0 0 0 0 0 0
18 23 23 18 3 0 64 300 1216 1098 826 711 579 548 505 456 444 467 434 346 325 356 251 164 78 302 113 74 220 202 154 140 135 28 0 0 0 0 0 0 0 0
10 38 20 15 12 26 96 165 90 538 1152 757 608 572 550 449 378 426 402 415 366 265 328 291 247 154 40 52 77 189 139 160 140 58 66 0 0 0 0 5 6 0
0 8 46 74 87 117 238 423 446 680 976 1283 931 720 731 639 575 511 399 323 287 344 274 283 253 136 108 222 58 50 90 184 135 0 0 121 136 146 131 26 97 37
0 0 0 0 0 0 0 0 98 340 427 543 573 1016 1136 1041 976 836 743 663 604 499 390 236 200 269 210 207 201 60 100 4 0 0 0 0 0 0 130 145 111 10
0 0 0 0 0 0 1 0 0 12 60 289 403 511 642 860 942 931 922 913 721 521 469 399 363 336 347 321 262 215 91 10 0 65 0 4 0 1 0 0 51 45
0 0 0 0 0 0 0 0 0 0 43 165 297 420 478 497 678 853 936 892 859 590 481 341 291 328 269 258 280 248 191 127 0 0 5 0 1 0 0 3 1 4
0 0 0 0 0 0 0 0 0 7 7 2 66 301 360 391 472 624 817 823 772 685 421 362 290 252 224 222 262 268 198 0 0 1 0 0 0 0 0 0 0 0
0 0 0 0 0 0 0 0 0 0 2 10 36 198 294 306 342 445 662 699 754 695 450 362 306 254 164 221 188 195 0 0 0 0 1 1 0 0 0 0 0 0
0 0 0 0 0 0 0 0 0 0 3 1 0 61 204 240 294 263 242 433 532 384 333 274 279 275 233 206 0 0 120 0 0 1 0 0 0 0 0 0 0 0
0 0 0 0 0 0 0 0 0 0 0 2 4 51 147 195 232 220 136 208 266 117 0 139 201 203 0 0 0 0 99 16 5 7 6 0 0 0 0 0 0 0
0 0 0 0 0 0 14 9 6 4 1 3 6 15 77 149 120 63 146 8 0 177 151 54 132 71 0 0 0 13 70 63 36 9 5 0 0 0 0 2 7 8
0 0 4 4 2 15 46 44 52 37 44 20 14 11 32 78 99 21 12 0 0 0 0 6 7 0 89 54 37 32 32 27 20 8 6 2 1 3 6 5 3 4
Wind_Speed
19 18 16 16 20 20 21 21 22 23 20 23 23 22 nan 22 nan nan nan nan nan nan nan nan nan nan nan nan nan nan nan nan nan nan nan nan nan nan nan nan nan nan
20 19 16 17 19 21 21 21 23 24 21 23 23 22 22 22 nan nan nan nan nan nan nan nan nan nan nan nan nan nan nan nan nan nan nan nan nan nan nan nan nan nan
21 19 18 19 19 22 24 22 23 24 22 22 23 24 23 22 nan 19 21 nan nan nan nan nan nan nan nan nan nan nan nan nan nan nan nan nan nan nan nan nan nan nan
22 20 20 20 21 23 26 25 24 25 23 22 22 23 24 23 nan 19 20 nan nan nan nan nan nan nan nan nan nan nan nan nan nan nan nan nan nan nan nan nan nan nan
23 22 21 22 23 23 27 27 25 23 22 22 21 23 25 24 22 20 20 19 19 nan nan nan nan nan nan nan nan nan nan nan nan nan nan nan nan nan nan nan nan nan
24 24 23 24 24 26 25 27 25 23 22 22 21 22 23 25 23 21 20 19 nan 19 nan nan nan nan nan nan nan nan nan nan nan nan nan nan nan nan nan nan nan nan
25 25 26 26 27 26 25 27 25 23 22 21 23 22 21 22 21 20 20 19 nan 17 nan nan nan nan nan nan nan nan nan nan nan nan nan nan nan nan nan nan nan nan
25 29 27 27 30 28 26 27 25 23 21 23 23 23 22 21 19 18 18 19 17 16 nan nan nan nan nan nan nan nan nan nan nan nan nan nan nan nan nan nan nan nan
33 34 32 32 32 35 28 26 25 23 24 23 23 23 23 22 21 20 17 16 16 16 16 nan nan nan nan nan nan nan nan nan nan nan nan nan nan nan nan nan nan nan
42 40 38 35 36 34 32 30 28 25 25 25 25 26 25 25 24 23 20 17 16 16 16 18 nan nan nan nan nan nan nan nan nan nan nan nan nan nan nan nan nan nan
46 nan 36 33 37 39 39 37 30 21 24 25 25 27 30 31 29 25 22 20 18 17 16 17 19 nan nan nan nan nan nan nan nan nan nan nan nan nan nan nan nan nan
40 39 38 36 41 42 41 34 32 30 28 30 32 33 31 29 25 25 25 21 18 18 18 18 20 22 nan nan nan nan nan nan nan nan nan nan nan nan nan nan nan nan
35 34 38 38 38 36 34 33 34 35 35 33 33 28 28 27 28 33 nan 20 17 19 nan nan nan nan 25 25 25 nan nan nan nan nan nan nan nan nan nan nan nan nan
40 41 42 41 37 35 34 34 35 37 36 36 34 31 31 29 31 33 nan nan nan nan nan nan 23 25 nan 25 nan nan nan nan nan nan nan nan nan nan nan nan nan nan
nan nan nan nan nan nan nan 36 38 39 39 40 37 34 31 32 35 33 28 23 24 27 32 35 nan 28 25 nan 22 25 29 30 32 nan nan nan nan nan nan nan nan nan
nan nan nan nan nan nan nan 37 nan 40 38 36 35 36 38 38 38 35 32 29 27 28 30 31 28 26 nan nan nan 26 30 34 37 nan nan nan nan nan nan nan nan nan
nan nan nan nan nan 40 42 42 42 43 43 41 38 38 40 41 41 38 35 34 34 33 31 34 35 33 26 25 nan nan nan 39 41 nan nan 40 40 37 38 nan nan nan
nan nan nan nan nan nan nan nan nan 47 48 47 45 44 42 42 41 38 36 36 39 39 36 37 40 41 37 35 38 nan 46 nan nan nan nan nan nan nan 43 42 41 nan
nan nan nan nan nan nan nan nan nan nan nan 50 49 48 48 48 45 43 42 40 43 44 41 42 47 45 46 45 45 50 nan nan nan nan nan nan nan nan nan nan nan nan
nan nan nan nan nan nan nan nan nan nan nan 51 52 52 51 50 51 50 49 49 48 51 49 50 52 49 53 54 55 57 58 55 nan nan nan nan nan nan nan nan nan nan
nan nan nan nan nan nan nan nan nan nan nan nan nan 53 53 52 52 52 53 53 54 55 57 59 55 57 61 62 63 63 64 nan nan nan nan nan nan nan nan nan nan nan
nan nan nan nan nan nan nan nan nan nan nan nan nan 52 53 54 54 55 54 54 56 60 65 62 62 62 65 66 67 67 nan nan nan nan nan nan nan nan nan nan nan nan
nan nan nan nan nan nan nan nan nan nan nan nan nan nan 51 52 52 53 54 53 54 59 65 62 62 60 64 68 nan nan 64 nan nan nan nan nan nan nan nan nan nan nan
nan nan nan nan nan nan nan nan nan nan nan nan nan nan 50 50 51 51 52 51 51 56 nan 60 58 57 nan nan nan nan nan nan nan nan nan nan nan nan nan nan nan nan
nan nan nan nan nan nan nan nan nan nan nan nan nan nan nan 51 52 nan 53 nan nan 61 61 nan 60 nan nan nan nan nan nan nan nan nan nan nan nan nan nan nan nan nan
nan nan nan nan nan nan nan nan nan nan nan nan nan nan nan nan nan nan nan nan nan nan nan nan nan nan nan nan nan nan nan nan nan nan nan nan nan nan nan nan nan nan
Wind_Direction
281 280 286 290 291 289 289 286 288 286 285 284 284 283 nan 278 nan nan nan nan nan nan nan nan nan nan nan nan nan nan nan nan nan nan nan nan nan nan nan nan nan nan
283 282 285 286 285 286 287 285 287 286 286 284 284 284 283 282 nan nan nan nan nan nan nan nan nan nan nan nan nan nan nan nan nan nan nan nan nan nan nan nan nan nan
284 283 288 284 284 285 289 284 283 283 283 282 283 284 284 283 nan 282 281 nan nan nan nan nan nan nan nan nan nan nan nan nan nan nan nan nan nan nan nan nan nan nan
282 282 283 283 283 283 286 285 279 280 279 279 280 284 284 283 nan 281 280 nan nan nan nan nan nan nan nan nan nan nan nan nan nan nan nan nan nan nan nan nan nan nan
279 278 276 276 278 277 281 281 279 276 277 279 279 284 286 285 284 280 278 279 279 nan nan nan nan nan nan nan nan nan nan nan nan nan nan nan nan nan nan nan nan nan
275 278 274 269 266 263 262 269 272 272 276 279 283 284 285 290 288 284 281 279 nan 278 nan nan nan nan nan nan nan nan nan nan nan nan nan nan nan nan nan nan nan nan
268 269 269 267 265 262 259 259 262 266 269 274 278 279 280 286 289 289 289 286 nan 279 nan nan nan nan nan nan nan nan nan nan nan nan nan nan nan nan nan nan nan nan
259 260 258 259 263 260 257 258 259 259 260 258 262 271 278 276 279 278 283 287 286 284 nan nan nan nan nan nan nan nan nan nan nan nan nan nan nan nan nan nan nan nan
251 253 257 261 263 263 260 253 251 254 253 257 258 258 263 268 267 267 266 271 279 280 283 nan nan nan nan nan nan nan nan nan nan nan nan nan nan nan nan nan nan nan
256 249 249 252 259 261 257 253 246 250 255 253 253 254 253 254 260 264 260 257 265 272 277 279 nan nan nan nan nan nan nan nan nan nan nan nan nan nan nan nan nan nan
267 nan 255 260 269 267 260 254 252 255 255 261 262 264 260 252 247 247 251 254 256 264 269 274 278 nan nan nan nan nan nan nan nan nan nan nan nan nan nan nan nan nan
267 268 271 274 275 265 257 252 253 247 250 254 253 259 264 265 258 252 245 241 254 259 262 266 268 272 nan nan nan nan nan nan nan nan nan nan nan nan nan nan nan nan
264 266 270 271 275 269 261 267 267 262 262 272 272 268 262 255 255 251 nan 234 244 256 nan nan nan nan 267 270 275 nan nan nan nan nan nan nan nan nan nan nan nan nan
262 261 259 261 264 261 264 272 271 268 274 276 275 271 266 266 263 261 nan nan nan nan nan nan 248 255 nan 259 nan nan nan nan nan nan nan nan nan nan nan nan nan nan
nan nan nan nan nan nan nan 263 268 274 276 278 278 274 266 264 266 263 259 259 262 256 251 248 nan 240 246 nan 266 269 271 276 276 nan nan nan nan nan nan nan nan nan
nan nan nan nan nan nan nan 267 nan 271 277 277 276 271 267 265 265 265 266 264 257 255 257 257 265 273 nan nan nan 274 272 273 273 nan nan nan nan nan nan nan nan nan
nan nan nan nan nan 266 265 267 269 271 273 277 274 269 267 266 265 264 266 268 267 265 263 266 270 273 274 267 nan nan nan 274 272 nan nan 273 276 278 279 nan nan nan
nan nan nan nan nan nan nan nan nan 262 264 263 263 268 269 265 267 267 267 268 270 270 266 267 273 278 279 279 286 nan 276 nan nan nan nan nan nan nan 278 280 281 nan
nan nan nan nan nan nan nan nan nan nan nan 261 262 261 261 264 265 264 263 263 268 273 273 272 272 280 286 285 282 279 nan nan nan nan nan nan nan nan nan nan nan nan
nan nan nan nan nan nan nan nan nan nan nan 260 261 263 263 263 265 265 264 264 264 266 269 269 273 281 285 284 281 279 278 276 nan nan nan nan nan nan nan nan nan nan
nan nan nan nan nan nan nan nan nan nan nan nan nan 265 267 268 269 269 268 268 267 268 266 267 274 281 282 282 281 278 276 nan nan nan nan nan nan nan nan nan nan nan
nan nan nan nan nan nan nan nan nan nan nan nan nan 266 266 266 266 269 271 271 271 270 270 271 273 279 282 281 278 277 nan nan nan nan nan nan nan nan nan nan nan nan
nan nan nan nan nan nan nan nan nan nan nan nan nan nan 268 268 268 268 269 270 271 272 274 273 274 276 279 278 nan nan 277 nan nan nan nan nan nan nan nan nan nan nan
nan nan nan nan nan nan nan nan nan nan nan nan nan nan 267 268 269 269 269 270 271 273 nan 277 275 274 nan nan nan nan nan nan nan nan nan nan nan nan nan nan nan nan
nan nan nan nan nan nan nan nan nan nan nan nan nan nan nan 266 267 nan 268 nan nan 270 273 nan 273 nan nan nan nan nan nan nan nan nan nan nan nan nan nan nan nan nan
nan nan nan nan nan nan nan nan nan nan nan nan nan nan nan nan nan nan nan nan nan nan nan nan nan nan nan nan nan nan nan nan nan nan nan nan nan nan nan nan nan nan